Time,TemperatureF,DewpointF,PressureIn,WindDirection,WindDirectionDegrees,WindSpeedMPH,WindSpeedGustMPH,Humidity,HourlyPrecipIn,Conditions,Clouds,dailyrainin,SolarRadiationWatts/m^2,SoftwareType,DateUTC
2013-05-08 00:12:00,40.0,37.0,-100.00,SE,134,6.0,10.0,90,0.00,,,0.19,0.000000,,2013-05-08 06:12:00,
2013-05-08 00:21:00,40.0,37.0,-100.00,SE,134,6.0,10.0,90,0.00,,,0.19,0.000000,,2013-05-08 06:21:00,
2013-05-08 00:32:00,40.0,37.0,-100.00,SE,134,6.0,10.0,90,0.00,,,0.19,0.000000,,2013-05-08 06:32:00,
2013-05-08 00:41:00,40.0,37.0,-100.00,SE,134,6.0,10.0,90,0.00,,,0.19,0.000000,,2013-05-08 06:41:00,
2013-05-08 01:11:00,39.0,36.0,-100.00,ESE,108,4.0,10.0,90,0.00,,,0.19,0.000000,,2013-05-08 07:11:00,
2013-05-08 01:21:00,39.0,36.0,-100.00,ESE,108,4.0,10.0,90,0.00,,,0.19,0.000000,,2013-05-08 07:21:00,
2013-05-08 01:31:00,39.0,36.0,-100.00,ESE,108,4.0,10.0,90,0.00,,,0.19,0.000000,,2013-05-08 07:31:00,
2013-05-08 01:42:00,39.0,36.0,-100.00,ESE,108,4.0,10.0,90,0.00,,,0.19,0.000000,,2013-05-08 07:42:00,
2013-05-08 02:11:00,39.0,36.0,-100.00,WSW,256,5.0,9.0,88,0.00,,,0.19,0.000000,,2013-05-08 08:11:00,
2013-05-08 02:21:00,39.0,36.0,-100.00,WSW,256,5.0,9.0,88,0.00,,,0.19,0.000000,,2013-05-08 08:21:00,
2013-05-08 02:31:00,39.0,36.0,-100.00,WSW,256,5.0,9.0,88,0.00,,,0.19,0.000000,,2013-05-08 08:31:00,
2013-05-08 02:42:00,39.0,36.0,-100.00,WSW,256,5.0,9.0,88,0.00,,,0.19,0.000000,,2013-05-08 08:42:00,
2013-05-08 03:11:00,41.0,39.0,-100.00,WSW,249,8.0,19.0,92,0.01,,,0.20,0.000000,,2013-05-08 09:11:00,
2013-05-08 03:21:00,41.0,39.0,-100.00,WSW,249,8.0,19.0,92,0.01,,,0.20,0.000000,,2013-05-08 09:21:00,
2013-05-08 03:32:00,41.0,39.0,-100.00,WSW,249,8.0,19.0,92,0.01,,,0.20,0.000000,,2013-05-08 09:32:00,
2013-05-08 03:42:00,41.0,39.0,-100.00,WSW,249,8.0,19.0,92,0.01,,,0.20,0.000000,,2013-05-08 09:42:00,
2013-05-08 04:12:00,40.0,39.0,-100.00,SE,133,5.0,11.0,95,0.00,,,0.20,0.000000,,2013-05-08 10:12:00,
2013-05-08 04:22:00,40.0,39.0,-100.00,SE,133,5.0,11.0,95,0.00,,,0.20,0.000000,,2013-05-08 10:22:00,
2013-05-08 04:33:00,40.0,39.0,-100.00,SE,133,5.0,11.0,95,0.00,,,0.20,0.000000,,2013-05-08 10:33:00,
2013-05-08 04:42:00,40.0,39.0,-100.00,SE,133,5.0,11.0,95,0.00,,,0.20,0.000000,,2013-05-08 10:42:00,
2013-05-08 05:11:00,36.0,34.0,-100.00,SW,235,7.0,20.0,93,0.24,,,-99.99,0.000000,,2013-05-08 11:11:00,
2013-05-08 05:22:00,36.0,34.0,-100.00,SW,235,7.0,20.0,93,0.24,,,-99.99,0.000000,,2013-05-08 11:22:00,
2013-05-08 05:32:00,36.0,34.0,-100.00,SW,235,7.0,20.0,93,0.24,,,-99.99,0.000000,,2013-05-08 11:32:00,
2013-05-08 05:41:00,36.0,34.0,-100.00,SW,235,7.0,20.0,93,0.24,,,-99.99,0.000000,,2013-05-08 11:41:00,
2013-05-08 06:11:00,35.0,34.0,-100.00,WSW,250,3.0,8.0,97,0.01,,,0.45,0.000000,,2013-05-08 12:11:00,
2013-05-08 06:21:00,35.0,34.0,-100.00,WSW,250,3.0,8.0,97,0.01,,,0.45,0.000000,,2013-05-08 12:21:00,
2013-05-08 06:31:00,35.0,34.0,-100.00,WSW,250,3.0,8.0,97,0.01,,,0.45,0.000000,,2013-05-08 12:31:00,
2013-05-08 06:41:00,35.0,34.0,-100.00,WSW,250,3.0,8.0,97,0.01,,,0.45,0.000000,,2013-05-08 12:41:00,
2013-05-08 07:21:00,36.0,35.0,-100.00,NNE,12,1.0,6.0,98,0.00,,,0.45,6.000000,,2013-05-08 13:21:00,
2013-05-08 07:32:00,36.0,35.0,-100.00,NNE,12,1.0,6.0,98,0.00,,,0.45,6.000000,,2013-05-08 13:32:00,
2013-05-08 07:42:00,36.0,35.0,-100.00,NNE,12,1.0,6.0,98,0.00,,,0.45,6.000000,,2013-05-08 13:42:00,
2013-05-08 08:11:00,37.0,37.0,-100.00,NNW,335,1.0,6.0,99,0.00,,,0.45,43.000000,,2013-05-08 14:11:00,
2013-05-08 08:21:00,37.0,37.0,-100.00,NNW,335,1.0,6.0,99,0.00,,,0.45,43.000000,,2013-05-08 14:21:00,
2013-05-08 08:31:00,37.0,37.0,-100.00,NNW,335,1.0,6.0,99,0.00,,,0.45,43.000000,,2013-05-08 14:31:00,
2013-05-08 08:42:00,37.0,37.0,-100.00,NNW,335,1.0,6.0,99,0.00,,,0.45,43.000000,,2013-05-08 14:42:00,
2013-05-08 09:11:00,37.0,37.0,-100.00,WSW,243,0.0,5.0,99,0.00,,,-99.99,35.000000,,2013-05-08 15:11:00,
2013-05-08 09:21:00,37.0,37.0,-100.00,WSW,243,0.0,5.0,99,0.00,,,-99.99,35.000000,,2013-05-08 15:21:00,
2013-05-08 09:33:00,37.0,37.0,-100.00,WSW,243,0.0,5.0,99,0.00,,,-99.99,35.000000,,2013-05-08 15:33:00,
2013-05-08 09:42:00,37.0,37.0,-100.00,WSW,243,0.0,5.0,99,0.00,,,-99.99,35.000000,,2013-05-08 15:42:00,
2013-05-08 10:23:00,37.0,36.0,-100.00,NW,322,2.0,4.0,98,0.06,,,-99.99,72.000000,,2013-05-08 16:23:00,
2013-05-08 10:33:00,37.0,36.0,-100.00,NW,322,2.0,4.0,98,0.06,,,-99.99,72.000000,,2013-05-08 16:33:00,
2013-05-08 10:42:00,37.0,36.0,-100.00,NW,322,2.0,4.0,98,0.06,,,-99.99,72.000000,,2013-05-08 16:42:00,
2013-05-08 11:12:00,38.0,37.0,-100.00,NNW,329,2.0,4.0,95,0.03,,,-99.99,122.000000,,2013-05-08 17:12:00,
2013-05-08 11:22:00,38.0,37.0,-100.00,NNW,329,2.0,4.0,95,0.03,,,-99.99,122.000000,,2013-05-08 17:22:00,
2013-05-08 11:31:00,38.0,37.0,-100.00,NNW,329,2.0,4.0,95,0.03,,,-99.99,122.000000,,2013-05-08 17:31:00,
2013-05-08 11:41:00,38.0,37.0,-100.00,NNW,329,2.0,4.0,95,0.03,,,-99.99,122.000000,,2013-05-08 17:41:00,
2013-05-08 12:11:00,41.0,39.0,-100.00,NE,36,3.0,6.0,94,0.00,,,-99.99,245.000000,,2013-05-08 18:11:00,
2013-05-08 12:21:00,41.0,39.0,-100.00,NE,36,3.0,6.0,94,0.00,,,-99.99,245.000000,,2013-05-08 18:21:00,
2013-05-08 12:31:00,41.0,39.0,-100.00,NE,36,3.0,6.0,94,0.00,,,-99.99,245.000000,,2013-05-08 18:31:00,
2013-05-08 12:42:00,41.0,39.0,-100.00,NE,36,3.0,6.0,94,0.00,,,-99.99,245.000000,,2013-05-08 18:42:00,
2013-05-08 13:11:00,44.0,40.0,-100.00,North,354,1.0,8.0,85,0.00,,,0.54,510.000000,,2013-05-08 19:11:00,
2013-05-08 13:21:00,44.0,40.0,-100.00,North,354,1.0,8.0,85,0.00,,,0.54,510.000000,,2013-05-08 19:21:00,
2013-05-08 13:32:00,44.0,40.0,-100.00,North,354,1.0,8.0,85,0.00,,,0.54,510.000000,,2013-05-08 19:32:00,
2013-05-08 13:41:00,44.0,40.0,-100.00,North,354,1.0,8.0,85,0.00,,,0.54,510.000000,,2013-05-08 19:41:00,
2013-05-08 14:11:00,46.0,41.0,-100.00,NW,305,6.0,11.0,82,0.00,,,0.53,605.000000,,2013-05-08 20:11:00,
2013-05-08 14:22:00,46.0,41.0,-100.00,NW,305,6.0,11.0,82,0.00,,,0.53,605.000000,,2013-05-08 20:22:00,
2013-05-08 14:32:00,46.0,41.0,-100.00,NW,305,6.0,11.0,82,0.00,,,0.53,605.000000,,2013-05-08 20:32:00,
2013-05-08 14:41:00,46.0,41.0,-100.00,NW,305,6.0,11.0,82,0.00,,,0.53,605.000000,,2013-05-08 20:41:00,
2013-05-08 15:11:00,49.0,42.0,-100.00,NW,312,9.0,16.0,76,0.00,,,0.53,863.000000,,2013-05-08 21:11:00,
2013-05-08 15:21:00,49.0,42.0,-100.00,NW,312,9.0,16.0,76,0.00,,,0.53,863.000000,,2013-05-08 21:21:00,
2013-05-08 15:32:00,49.0,42.0,-100.00,NW,312,9.0,16.0,76,0.00,,,0.53,863.000000,,2013-05-08 21:32:00,
2013-05-08 15:43:00,49.0,42.0,-100.00,NW,312,9.0,16.0,76,0.00,,,0.53,863.000000,,2013-05-08 21:43:00,
2013-05-08 16:12:00,48.0,39.0,-100.00,SSW,196,3.0,15.0,71,0.00,,,0.51,500.000000,,2013-05-08 22:12:00,
2013-05-08 16:22:00,48.0,39.0,-100.00,SSW,196,3.0,15.0,71,0.00,,,0.51,500.000000,,2013-05-08 22:22:00,
2013-05-08 16:33:00,48.0,39.0,-100.00,SSW,196,3.0,15.0,71,0.00,,,0.51,500.000000,,2013-05-08 22:33:00,
2013-05-08 16:42:00,48.0,39.0,-100.00,SSW,196,3.0,15.0,71,0.00,,,0.51,500.000000,,2013-05-08 22:42:00,
2013-05-08 17:11:00,43.0,38.0,-100.00,SE,128,5.0,14.0,84,0.00,,,0.43,73.000000,,2013-05-08 23:11:00,
2013-05-08 17:22:00,43.0,38.0,-100.00,SE,128,5.0,14.0,84,0.00,,,0.43,73.000000,,2013-05-08 23:22:00,
2013-05-08 17:32:00,43.0,38.0,-100.00,SE,128,5.0,14.0,84,0.00,,,0.43,73.000000,,2013-05-08 23:32:00,
2013-05-08 17:42:00,43.0,38.0,-100.00,SE,128,5.0,14.0,84,0.00,,,0.43,73.000000,,2013-05-08 23:42:00,
2013-05-08 18:11:00,47.0,40.0,-100.00,SSE,166,4.0,8.0,76,0.01,,,0.44,177.000000,,2013-05-09 00:11:00,
2013-05-08 18:21:00,47.0,40.0,-100.00,SSE,166,4.0,8.0,76,0.01,,,0.44,177.000000,,2013-05-09 00:21:00,
2013-05-08 18:32:00,47.0,40.0,-100.00,SSE,166,4.0,8.0,76,0.01,,,0.44,177.000000,,2013-05-09 00:32:00,
2013-05-08 18:42:00,47.0,40.0,-100.00,SSE,166,4.0,8.0,76,0.01,,,0.44,177.000000,,2013-05-09 00:42:00,
2013-05-08 19:11:00,46.0,41.0,-100.00,SE,143,5.0,10.0,84,0.00,,,0.44,214.000000,,2013-05-09 01:11:00,
2013-05-08 19:22:00,46.0,41.0,-100.00,SE,143,5.0,10.0,84,0.00,,,0.44,214.000000,,2013-05-09 01:22:00,
2013-05-08 19:32:00,46.0,41.0,-100.00,SE,143,5.0,10.0,84,0.00,,,0.44,214.000000,,2013-05-09 01:32:00,
2013-05-08 19:42:00,46.0,41.0,-100.00,SE,143,5.0,10.0,84,0.00,,,0.44,214.000000,,2013-05-09 01:42:00,
2013-05-08 20:11:00,46.0,40.0,-100.00,NW,317,3.0,7.0,78,0.00,,,0.44,73.000000,,2013-05-09 02:11:00,
2013-05-08 20:21:00,46.0,40.0,-100.00,NW,317,3.0,7.0,78,0.00,,,0.44,73.000000,,2013-05-09 02:21:00,
2013-05-08 20:32:00,46.0,40.0,-100.00,NW,317,3.0,7.0,78,0.00,,,0.44,73.000000,,2013-05-09 02:32:00,
2013-05-08 20:41:00,46.0,40.0,-100.00,NW,317,3.0,7.0,78,0.00,,,0.44,73.000000,,2013-05-09 02:41:00,
2013-05-08 21:11:00,44.0,40.0,-100.00,WSW,246,2.0,3.0,85,0.00,,,0.38,4.000000,,2013-05-09 03:11:00,
2013-05-08 21:21:00,44.0,40.0,-100.00,WSW,246,2.0,3.0,85,0.00,,,0.38,4.000000,,2013-05-09 03:21:00,
2013-05-08 21:33:00,44.0,40.0,-100.00,WSW,246,2.0,3.0,85,0.00,,,0.38,4.000000,,2013-05-09 03:33:00,
2013-05-08 21:43:00,44.0,40.0,-100.00,WSW,246,2.0,3.0,85,0.00,,,0.38,4.000000,,2013-05-09 03:43:00,
2013-05-08 22:12:00,43.0,39.0,-100.00,SSW,210,2.0,3.0,87,0.00,,,0.36,0.000000,,2013-05-09 04:12:00,
2013-05-08 22:23:00,43.0,39.0,-100.00,SSW,210,2.0,3.0,87,0.00,,,0.36,0.000000,,2013-05-09 04:23:00,
2013-05-08 22:32:00,43.0,39.0,-100.00,SSW,210,2.0,3.0,87,0.00,,,0.36,0.000000,,2013-05-09 04:32:00,
2013-05-08 22:42:00,43.0,39.0,-100.00,SSW,210,2.0,3.0,87,0.00,,,0.36,0.000000,,2013-05-09 04:42:00,
2013-05-08 23:12:00,42.0,41.0,-100.00,NNW,330,6.0,9.0,98,0.01,,,0.37,0.000000,,2013-05-09 05:12:00,
2013-05-08 23:22:00,42.0,41.0,-100.00,NNW,330,6.0,9.0,98,0.01,,,0.37,0.000000,,2013-05-09 05:22:00,
2013-05-08 23:32:00,42.0,41.0,-100.00,NNW,330,6.0,9.0,98,0.01,,,0.37,0.000000,,2013-05-09 05:32:00,
2013-05-08 23:42:00,42.0,41.0,-100.00,NNW,330,6.0,9.0,98,0.01,,,0.37,0.000000,,2013-05-09 05:42:00,